Вернуться в каталог

FALCON 9 R/B

АктивенMEO
NORAD 56369·ROCKET BODY·🇺🇸 United States

Запущен Apr 28, 2023 с Cape Canaveral Space Force Station

Loading…

Ближайшие Пролёты (ближайшие 24 часа)

TLE

СвежийSource: Space-Track

Эпоха: Sep 14, 2026, 22:21 UTC

1 56369U 23059C   26257.93139133  .00000023  00000-0 -12240-1 0  9998
2 56369   8.5876  29.4872 1881248 107.1711 274.2106  7.26687740 89845

Отслеживайте FALCON 9 R/B в реальном времени с AllMySat

Download on the App Store